Weather Roundup
Issued by NWS

Home | Current Version | Previous Version | Graphics & Text | Print | Product List | Glossary Off
Versions: 1 2 3 4 5 6 7 8 9 10 11 12 13 14 15 16 17 18 19 20 21 22 23 24 25 26 27 28 29 30 31 32 33 34 35 36 37 38 39 40 41 42 43 44 45 46 47 48 49 50

000
NZUS93 KARX 221559
HRRWXR

CURRENT HOURLY OBSERVATIONS ACROSS
MUCH OF THE UPPER MISSISSIPPI VALLEY
NATIONAL WEATHER SERVICE LA CROSSE WI
1100 AM CDT FRI AUG 22 2014


...SOUTHEAST MINNESOTA...


CITY           SKY/WX    TMP DP  RH WIND       PRES   REMARKS
ROCHESTER      MOSUNNY   78  69  73 VRB3      29.98R
ROCHESTER/MAYO PTSUNNY   77  66  69 NW3       29.96S
WINONA         CLOUDY    79  70  73 CALM      29.94R
AUSTIN         MOSUNNY   79  70  73 E6        29.96S
ALBERT LEA     MOSUNNY   79  72  78 NE3       29.96S
DODGE CENTER   PTSUNNY   75  70  83 CALM      29.97R
PRESTON        CLOUDY    75  73  93 CALM      29.97S
OWATONNA       MOSUNNY   73  68  83 N3        29.98R HAZE
FARIBAULT      CLOUDY    79  64  61 CALM      29.97R
$$

...ELSEWHERE IN MINNESOTA...


CITY           SKY/WX    TMP DP  RH WIND       PRES   REMARKS
MINNEAPOLIS    CLOUDY    73  68  84 N6        29.96R
INTNL FALLS    CLOUDY    68  63  84 E6        29.99S
DULUTH         FOG       64  62  93 SE5       29.99R VSB 1/4
RED WING       PTSUNNY   79  70  73 NW5       29.93S
REDWOOD FALLS  PTSUNNY   78  70  76 NE7       29.97R
MANKATO        CLOUDY    75  66  73 N9        29.97R
WORTHINGTON    MOSUNNY   77  18  10 N7        30.00S
FAIRMONT       CLOUDY    75  68  78 N7        29.98R
$$

...SOUTHWEST WISCONSIN...


CITY           SKY/WX    TMP DP  RH WIND       PRES   REMARKS
LA CROSSE      CLOUDY    78  73  84 SW3       29.93R
PRAIRIE DU CHI CLOUDY    78  73  83 CALM      29.93R HAZE
BOSCOBEL       PTSUNNY   83  74  74 CALM      29.94S
LONE ROCK      NOT AVBL
PLATTEVILLE    CLOUDY    78  76  94 CALM      29.96R
FORT MC COY    CLOUDY    76  72  87 S3        29.94S FOG
CAMP DOUGLAS   CLOUDY    75  75 100 S6        29.95R
VIROQUA        CLOUDY    76  76 100 S3        29.96R
WIS DELLS      PTSUNNY   82  72  71 S7        29.95S
$$

...ELSEWHERE IN WISCONSIN...


CITY           SKY/WX    TMP DP  RH WIND       PRES   REMARKS
MILWAUKEE      CLOUDY    72  69  90 E6        29.98R FOG
MADISON        PTSUNNY   80  73  79 SE3       29.95S
GREEN BAY      CLOUDY    75  70  84 VRB3      29.96R
EAU CLAIRE     NOT AVBL
BLACK RVR FLS  CLOUDY    74  74 100 CALM      29.93S FOG
MEDFORD        FOG       69  69 100 SE5       29.96R VSB 3/4
WAUSAU         CLOUDY    70  68  93 SE7       29.95R
WIS RAPIDS     CLOUDY    78  72  81 S7        29.96R
MARSHFIELD     CLOUDY    73  72  96 S7        29.95S FOG
RICE LAKE      CLOUDY    72  70  94 CALM      29.96R FOG
$$

...NORTHEAST IOWA...


CITY           SKY/WX    TMP DP  RH WIND       PRES   REMARKS
WATERLOO       PTSUNNY   81  75  82 S7        29.93R
DUBUQUE        CLOUDY    75  74  96 S5        29.97R
DECORAH        CLOUDY    75  75 100 CALM      29.95R FOG
MASON CITY     MOSUNNY   81  72  74 NE6       29.97R
CHARLES CITY   CLOUDY    75  75 100 VRB5      29.96R FOG
OELWEIN        PTSUNNY   79  77  94 S6        29.96R FOG
$$

...ELSEWHERE IN IOWA...


CITY           SKY/WX    TMP DP  RH WIND       PRES   REMARKS
DES MOINES     PTSUNNY   82  72  71 SE5       29.94R
IOWA CITY      CLOUDY    80  73  79 W5        29.95R
FORT DODGE     CLOUDY    79  73  83 CALM      29.96R
MARSHALLTOWN   SUNNY     81  72  74 SW5       29.94R
CEDAR RAPIDS   PTSUNNY   79  73  82 W6        29.94R
$$

...NORTHERN ILLINOIS...


CITY           SKY/WX    TMP DP  RH WIND       PRES   REMARKS
CHICAGO-OHARE  CLOUDY    79  74  84 W7        29.96R
DUPAGE         CLOUDY    79  72  79 SW12      29.96F
CHICAGO-MIDWAY CLOUDY    80  74  81 SW9       29.96R
MOLINE         CLOUDY    73  72  96 S7        29.96R
ROCKFORD       CLOUDY    78  73  84 SW13      29.97S
STERLING       CLOUDY    72  68  88 W5        29.96S
PEORIA         LGT RAIN  74  71  91 SW5       30.00R
$$

NOTE: "FAIR" INDICATES FEW OR NO CLOUDS BELOW 12,000 FEET WITH NO
SIGNIFICANT WEATHER AND/OR OBSTRUCTIONS TO VISIBILITY. WIND
SPEEDS ARE IN MILES-PER-HOUR.



USA.gov is the U.S. government's official web portal to all federal, state and local government web resources and services.